Location: Chicago
(41.7813°N, 87.6051°W)
Time: 00:11:47
(UTC-05:00)

ISS - Visible Passes

Search period start: 20 July 2018 00:00
Search period end: 30 July 2018 00:00
Orbit: 402 x 408 km, 51.6° (Epoch: 20 July)

Date Brightness Start Highest point End Pass type
(mag) Time Alt. Az. Time Alt. Az. Time Alt. Az.
20 Jul -0.6 01:26:45 10° NW 01:28:44 15° N 01:30:44 10° NE visible
20 Jul -1.7 03:03:06 10° NW 03:06:01 28° NNE 03:08:56 10° E visible
20 Jul -3.5 04:39:27 10° WNW 04:42:37 45° SW 04:45:47 10° SSE visible
20 Jul -3.6 21:19:19 10° SSW 21:22:27 45° SE 21:25:36 10° ENE visible
20 Jul -1.7 22:56:09 10° W 22:59:03 28° NNW 23:01:58 10° NE visible
21 Jul -0.6 00:34:21 10° NW 00:36:20 15° N 00:38:19 10° NE visible
21 Jul -1.1 02:11:08 10° NW 02:13:44 21° NNE 02:16:20 10° ENE visible
21 Jul -3.9 03:47:16 10° NW 03:50:34 87° SSW 03:53:51 10° SE visible
21 Jul -2.5 22:03:40 10° WSW 22:06:49 42° NNW 22:09:58 10° NE visible
21 Jul -0.7 23:41:46 10° NW 23:43:56 16° N 23:46:06 10° NNE visible
22 Jul -0.8 01:19:06 10° NNW 01:21:23 17° NNE 01:23:40 10° NE visible
22 Jul -3.0 02:55:12 10° NW 02:58:26 52° NNE 03:01:40 10° ESE visible
22 Jul -2.4 04:32:16 10° W 04:34:40 19° SW 04:37:04 10° S visible
22 Jul -3.6 21:11:22 10° WSW 21:14:38 74° NNW 21:17:55 10° NE visible
22 Jul -0.9 22:49:06 10° WNW 22:51:33 19° NNW 22:54:01 10° NNE visible
23 Jul -0.7 00:26:57 10° NNW 00:28:58 15° N 00:30:54 10° NE visible
23 Jul -0.8 02:03:11 10° NW 02:03:26 12° NW 02:03:26 12° NW visible
23 Jul -1.4 21:56:26 10° W 21:59:12 25° NNW 22:02:00 10° NE visible
23 Jul -0.6 23:34:36 10° NW 23:36:33 15° N 23:38:30 10° NE visible
24 Jul -0.8 01:11:11 10° NW 01:12:06 15° NNW 01:12:06 15° NNW visible
24 Jul -2.1 21:03:51 10° W 21:06:55 36° NNW 21:09:59 10° NE visible
24 Jul -0.7 22:42:02 10° NW 22:44:06 15° N 22:46:11 10° NNE visible
25 Jul -1.0 00:19:08 10° NNW 00:21:12 18° N 00:21:12 18° N visible
25 Jul -0.9 21:49:20 10° WNW 21:51:40 18° NNW 21:54:01 10° NNE visible
25 Jul -0.9 23:27:00 10° NNW 23:29:06 16° N 23:30:26 13° NE visible
26 Jul -1.2 20:56:37 10° WNW 20:59:16 22° NNW 21:01:56 10° NE visible
26 Jul -0.8 22:34:41 10° NW 22:36:39 15° N 22:38:36 10° NE visible
27 Jul -0.9 00:11:07 10° NW 00:12:23 18° NNW 00:12:23 18° NNW visible
27 Jul -0.9 21:42:09 10° NW 21:44:09 15° N 21:46:09 10° NNE visible
27 Jul -1.4 23:19:03 10° NW 23:21:34 20° NNE 23:21:46 20° NNE visible
28 Jul -1.0 20:49:27 10° NW 20:51:40 17° N 20:53:54 10° NNE visible
28 Jul -1.1 22:26:56 10° NNW 22:29:07 16° N 22:31:10 11° NE visible
29 Jul -0.8 00:03:01 10° NW 00:03:47 16° NW 00:03:47 16° NW visible
29 Jul -1.0 21:34:38 10° NNW 21:36:37 15° N 21:38:36 10° NE visible
29 Jul -1.8 23:10:56 10° NW 23:13:13 27° N 23:13:13 27° N visible
